Time,TemperatureF,DewpointF,PressureIn,WindDirection,WindDirectionDegrees,WindSpeedMPH,WindSpeedGustMPH,Humidity,HourlyPrecipIn,Conditions,Clouds,dailyrainin,SoftwareType,DateUTC
2013-02-02 00:00:00,14.5,5.2,30.27,ESE,112,10.5,17.3,66,0.00,CLR,,0.00,WeatherDisplay:10.37,2013-02-02 05:00:00,
2013-02-02 00:01:00,14.5,5.2,30.27,ESE,112,12.5,16.5,66,0.00,CLR,,0.00,WeatherDisplay:10.37,2013-02-02 05:01:00,
2013-02-02 00:06:00,14.5,5.6,30.27,ESE,112,12.5,17.3,67,0.00,CLR,,0.00,WeatherDisplay:10.37,2013-02-02 05:06:00,
2013-02-02 00:11:00,14.5,5.6,30.27,ESE,112,8.8,15.0,67,0.00,CLR,,0.00,WeatherDisplay:10.37,2013-02-02 05:11:00,
2013-02-02 00:16:00,14.4,6.0,30.27,ESE,112,10.5,13.8,69,0.00,CLR,,0.00,WeatherDisplay:10.37,2013-02-02 05:16:00,
2013-02-02 00:21:00,14.4,6.4,30.27,ESE,112,9.7,17.3,70,0.00,CLR,,0.00,WeatherDisplay:10.37,2013-02-02 05:21:00,
2013-02-02 00:26:00,14.4,7.0,30.27,ESE,112,9.7,17.3,72,0.00,CLR,,0.00,WeatherDisplay:10.37,2013-02-02 05:26:00,
2013-02-02 00:31:00,14.2,7.1,30.27,ESE,112,9.7,15.4,73,0.00,CLR,,0.00,WeatherDisplay:10.37,2013-02-02 05:31:00,
2013-02-02 00:36:00,14.2,7.4,30.27,ESE,112,10.5,15.0,74,0.00,CLR,,0.00,WeatherDisplay:10.37,2013-02-02 05:36:00,
2013-02-02 00:41:00,14.0,7.2,30.27,ESE,112,9.7,15.0,74,0.00,CLR,,0.00,WeatherDisplay:10.37,2013-02-02 05:41:00,
2013-02-02 00:46:00,14.2,7.7,30.26,ESE,112,11.7,13.8,75,0.00,CLR,,0.00,WeatherDisplay:10.37,2013-02-02 05:46:00,
2013-02-02 00:51:00,14.2,8.0,30.26,ESE,112,12.5,16.1,76,0.00,CLR,,0.00,WeatherDisplay:10.37,2013-02-02 05:51:00,
2013-02-02 00:56:00,14.2,8.0,30.26,ESE,112,8.8,15.0,76,0.00,CLR,,0.00,WeatherDisplay:10.37,2013-02-02 05:56:00,
2013-02-02 01:01:00,14.4,8.5,30.26,ESE,112,9.7,13.8,77,0.00,CLR,,0.00,WeatherDisplay:10.37,2013-02-02 06:01:00,
2013-02-02 01:06:00,14.5,8.6,30.26,ESE,112,9.7,15.0,77,0.00,CLR,,0.00,WeatherDisplay:10.37,2013-02-02 06:06:00,
2013-02-02 01:11:00,14.7,9.1,30.26,ESE,112,12.5,15.0,78,0.00,CLR,,0.00,WeatherDisplay:10.37,2013-02-02 06:11:00,
2013-02-02 01:16:00,14.5,8.9,30.26,ESE,112,9.7,17.3,78,0.00,CLR,,0.00,WeatherDisplay:10.37,2013-02-02 06:16:00,
2013-02-02 01:21:00,14.5,8.9,30.26,ESE,112,11.7,15.0,78,0.00,CLR,,0.00,WeatherDisplay:10.37,2013-02-02 06:21:00,
2013-02-02 01:26:00,14.7,9.4,30.26,ESE,112,10.5,19.6,79,0.00,CLR,,0.00,WeatherDisplay:10.37,2013-02-02 06:26:00,
2013-02-02 01:31:00,14.7,9.4,30.26,ESE,112,11.7,15.0,79,0.00,CLR,,0.00,WeatherDisplay:10.37,2013-02-02 06:31:00,
2013-02-02 01:36:00,14.7,9.4,30.26,SE,135,12.5,16.5,79,0.00,CLR,,0.00,WeatherDisplay:10.37,2013-02-02 06:36:00,
2013-02-02 01:41:00,14.7,9.4,30.26,SE,135,11.7,16.1,79,0.00,CLR,,0.00,WeatherDisplay:10.37,2013-02-02 06:41:00,
2013-02-02 01:46:00,14.9,9.8,30.26,SE,135,5.7,11.5,80,0.00,CLR,,0.00,WeatherDisplay:10.37,2013-02-02 06:46:00,
2013-02-02 01:51:00,15.1,10.0,30.26,SE,135,8.8,15.0,80,0.00,CLR,,0.00,WeatherDisplay:10.37,2013-02-02 06:51:00,
2013-02-02 01:56:00,15.1,10.0,30.26,SE,135,11.7,16.1,80,0.00,CLR,,0.00,WeatherDisplay:10.37,2013-02-02 06:56:00,
2013-02-02 02:01:00,15.1,10.0,30.26,SE,135,10.5,12.7,80,0.00,CLR,,0.00,WeatherDisplay:10.37,2013-02-02 07:01:00,
2013-02-02 02:06:00,15.3,10.2,30.26,SE,135,11.7,16.1,80,0.00,CLR,,0.00,WeatherDisplay:10.37,2013-02-02 07:06:00,
2013-02-02 02:11:00,15.1,10.0,30.26,SE,135,7.7,11.5,80,0.00,CLR,,0.00,WeatherDisplay:10.37,2013-02-02 07:11:00,
2013-02-02 02:16:00,15.3,10.5,30.26,SE,135,10.5,18.4,81,0.00,CLR,,0.00,WeatherDisplay:10.37,2013-02-02 07:16:00,
2013-02-02 02:21:00,15.3,10.5,30.26,SE,135,13.7,16.1,81,0.00,CLR,,0.00,WeatherDisplay:10.37,2013-02-02 07:21:00,
2013-02-02 02:26:00,15.3,10.5,30.26,SE,135,11.7,15.0,81,0.00,CLR,,0.00,WeatherDisplay:10.37,2013-02-02 07:26:00,
2013-02-02 02:31:00,15.3,10.5,30.26,SE,135,12.5,19.6,81,0.00,CLR,,0.00,WeatherDisplay:10.37,2013-02-02 07:31:00,
2013-02-02 02:36:00,15.3,10.5,30.26,SE,135,11.7,17.3,81,0.00,CLR,,0.00,WeatherDisplay:10.37,2013-02-02 07:36:00,
2013-02-02 02:41:00,15.3,10.5,30.25,SE,135,10.5,15.0,81,0.00,CLR,,0.00,WeatherDisplay:10.37,2013-02-02 07:41:00,
2013-02-02 02:46:00,15.4,10.7,30.25,SE,135,14.5,15.0,81,0.00,CLR,,0.00,WeatherDisplay:10.37,2013-02-02 07:46:00,
2013-02-02 02:51:00,15.4,10.7,30.26,SE,135,9.7,15.0,81,0.00,CLR,,0.00,WeatherDisplay:10.37,2013-02-02 07:51:00,
2013-02-02 02:56:00,15.6,10.8,30.26,SE,135,10.5,21.9,81,0.00,CLR,,0.00,WeatherDisplay:10.37,2013-02-02 07:56:00,
2013-02-02 03:01:00,15.6,11.1,30.25,SE,135,9.7,15.0,82,0.00,CLR,,0.00,WeatherDisplay:10.37,2013-02-02 08:01:00,
2013-02-02 03:06:00,15.6,11.1,30.25,SE,135,9.7,15.0,82,0.00,CLR,,0.00,WeatherDisplay:10.37,2013-02-02 08:06:00,
2013-02-02 03:11:00,15.8,11.0,30.25,SE,135,8.8,16.1,81,0.00,CLR,,0.00,WeatherDisplay:10.37,2013-02-02 08:11:00,
2013-02-02 03:16:00,15.8,11.0,30.25,SE,135,11.7,15.0,81,0.00,CLR,,0.00,WeatherDisplay:10.37,2013-02-02 08:16:00,
2013-02-02 03:21:00,15.8,11.0,30.25,SE,135,10.5,15.0,81,0.00,CLR,,0.00,WeatherDisplay:10.37,2013-02-02 08:21:00,
2013-02-02 03:26:00,16.0,11.2,30.25,SE,135,12.5,17.3,81,0.00,CLR,,0.00,WeatherDisplay:10.37,2013-02-02 08:26:00,
2013-02-02 03:31:00,16.0,11.2,30.24,SE,135,8.8,12.7,81,0.00,CLR,,0.00,WeatherDisplay:10.37,2013-02-02 08:31:00,
2013-02-02 03:36:00,16.0,11.2,30.24,SE,135,10.5,15.0,81,0.00,CLR,,0.00,WeatherDisplay:10.37,2013-02-02 08:36:00,
2013-02-02 03:41:00,16.0,11.2,30.24,SE,135,8.8,13.8,81,0.00,CLR,,0.00,WeatherDisplay:10.37,2013-02-02 08:41:00,
2013-02-02 03:46:00,16.2,11.4,30.23,SE,135,7.7,12.7,81,0.00,CLR,,0.00,WeatherDisplay:10.37,2013-02-02 08:46:00,
2013-02-02 03:51:00,16.2,11.4,30.24,SE,135,9.7,11.5,81,0.00,CLR,,0.00,WeatherDisplay:10.37,2013-02-02 08:51:00,
2013-02-02 03:56:00,16.2,11.6,30.23,SE,135,6.8,11.5,82,0.00,CLR,,0.00,WeatherDisplay:10.37,2013-02-02 08:56:00,
2013-02-02 04:01:00,16.3,11.8,30.23,SE,135,6.8,10.4,82,0.00,CLR,,0.00,WeatherDisplay:10.37,2013-02-02 09:01:00,
2013-02-02 04:06:00,16.5,12.0,30.23,SE,135,8.8,9.2,82,0.00,CLR,,0.00,WeatherDisplay:10.37,2013-02-02 09:06:00,
2013-02-02 04:11:00,16.5,12.0,30.23,SE,135,7.7,10.4,82,0.00,CLR,,0.00,WeatherDisplay:10.37,2013-02-02 09:11:00,
2013-02-02 04:16:00,16.5,12.0,30.22,SE,135,6.8,9.2,82,0.00,CLR,,0.00,WeatherDisplay:10.37,2013-02-02 09:16:00,
2013-02-02 04:21:00,16.7,12.2,30.22,SE,135,7.7,11.5,82,0.00,CLR,,0.00,WeatherDisplay:10.37,2013-02-02 09:21:00,
2013-02-02 04:26:00,16.7,12.2,30.22,SE,135,4.8,11.5,82,0.00,CLR,,0.00,WeatherDisplay:10.37,2013-02-02 09:26:00,
2013-02-02 04:31:00,16.7,12.2,30.21,SE,135,5.7,9.2,82,0.00,CLR,,0.00,WeatherDisplay:10.37,2013-02-02 09:31:00,
2013-02-02 04:36:00,16.9,12.3,30.21,SE,135,9.7,15.0,82,0.00,CLR,,0.00,WeatherDisplay:10.37,2013-02-02 09:36:00,
2013-02-02 04:41:00,16.9,12.3,30.21,SE,135,6.8,9.2,82,0.00,CLR,,0.00,WeatherDisplay:10.37,2013-02-02 09:41:00,
2013-02-02 04:46:00,17.1,12.5,30.21,SE,135,6.8,10.4,82,0.00,CLR,,0.00,WeatherDisplay:10.37,2013-02-02 09:46:00,
2013-02-02 04:51:00,17.2,12.7,30.20,SE,135,7.7,10.4,82,0.00,CLR,,0.00,WeatherDisplay:10.37,2013-02-02 09:51:00,
2013-02-02 04:56:00,17.2,12.7,30.20,SE,135,6.8,10.4,82,0.00,CLR,,0.00,WeatherDisplay:10.37,2013-02-02 09:56:00,
2013-02-02 05:01:00,17.2,12.7,30.20,SE,135,7.7,12.7,82,0.00,CLR,,0.00,WeatherDisplay:10.37,2013-02-02 10:01:00,
2013-02-02 05:06:00,17.4,12.9,30.20,SE,135,5.7,9.2,82,0.00,CLR,,0.00,WeatherDisplay:10.37,2013-02-02 10:06:00,
2013-02-02 05:11:00,17.4,12.9,30.19,SE,135,6.8,9.2,82,0.00,CLR,,0.00,WeatherDisplay:10.37,2013-02-02 10:11:00,
2013-02-02 05:16:00,17.4,12.9,30.19,SE,135,8.8,12.7,82,0.00,CLR,,0.00,WeatherDisplay:10.37,2013-02-02 10:16:00,
2013-02-02 05:21:00,17.4,12.9,30.19,SE,135,5.7,12.7,82,0.00,CLR,,0.00,WeatherDisplay:10.37,2013-02-02 10:21:00,
2013-02-02 05:26:00,17.6,12.8,30.19,SE,135,7.7,10.4,81,0.00,CLR,,0.00,WeatherDisplay:10.37,2013-02-02 10:26:00,
2013-02-02 05:31:00,17.8,12.9,30.19,SE,135,7.7,12.7,81,0.00,CLR,,0.00,WeatherDisplay:10.37,2013-02-02 10:31:00,
2013-02-02 05:36:00,17.8,12.9,30.19,SE,135,7.7,11.5,81,0.00,CLR,,0.00,WeatherDisplay:10.37,2013-02-02 10:36:00,
2013-02-02 05:41:00,17.8,12.9,30.19,SE,135,4.8,9.2,81,0.00,CLR,,0.00,WeatherDisplay:10.37,2013-02-02 10:41:00,
2013-02-02 05:46:00,17.8,12.9,30.19,SE,135,7.7,9.2,81,0.00,CLR,,0.00,WeatherDisplay:10.37,2013-02-02 10:46:00,
2013-02-02 05:51:00,17.8,12.9,30.18,SE,135,10.5,12.7,81,0.00,CLR,,0.00,WeatherDisplay:10.37,2013-02-02 10:51:00,
2013-02-02 05:56:00,17.8,12.9,30.18,SE,135,6.8,13.8,81,0.00,CLR,,0.00,WeatherDisplay:10.37,2013-02-02 10:56:00,
2013-02-02 06:01:00,18.0,13.4,30.18,SE,135,9.7,13.8,82,0.00,CLR,,0.00,WeatherDisplay:10.37,2013-02-02 11:01:00,
2013-02-02 06:06:00,18.0,13.4,30.18,SE,135,6.8,10.4,82,0.00,CLR,,0.00,WeatherDisplay:10.37,2013-02-02 11:06:00,
2013-02-02 06:11:00,18.1,13.6,30.17,SE,135,9.7,15.0,82,0.00,CLR,,0.00,WeatherDisplay:10.37,2013-02-02 11:11:00,
2013-02-02 06:17:00,18.1,13.6,30.17,SE,135,10.5,15.0,82,0.00,CLR,,0.00,WeatherDisplay:10.37,2013-02-02 11:17:00,
2013-02-02 06:22:00,18.3,13.7,30.17,SE,135,9.7,15.0,82,0.00,CLR,,0.00,WeatherDisplay:10.37,2013-02-02 11:22:00,
2013-02-02 06:27:00,18.3,13.7,30.17,SE,135,10.5,16.1,82,0.00,CLR,,0.00,WeatherDisplay:10.37,2013-02-02 11:27:00,
2013-02-02 06:32:00,18.5,13.9,30.17,SE,135,9.7,13.8,82,0.00,CLR,,0.00,WeatherDisplay:10.37,2013-02-02 11:32:00,
2013-02-02 06:37:00,18.7,14.1,30.17,SE,135,10.5,15.0,82,0.00,CLR,,0.00,WeatherDisplay:10.37,2013-02-02 11:37:00,
2013-02-02 06:42:00,18.7,14.1,30.16,SE,135,11.7,13.8,82,0.00,CLR,,0.00,WeatherDisplay:10.37,2013-02-02 11:42:00,
2013-02-02 06:47:00,18.9,14.3,30.16,SE,135,12.5,15.0,82,0.00,CLR,,0.00,WeatherDisplay:10.37,2013-02-02 11:47:00,
2013-02-02 06:52:00,19.0,14.4,30.15,SE,135,12.5,17.3,82,0.00,CLR,,0.00,WeatherDisplay:10.37,2013-02-02 11:52:00,
2013-02-02 06:57:00,19.0,14.4,30.15,SE,135,10.5,13.8,82,0.00,CLR,,0.00,WeatherDisplay:10.37,2013-02-02 11:57:00,
2013-02-02 07:02:00,19.0,14.4,30.14,SE,135,8.8,12.7,82,0.00,CLR,,0.00,WeatherDisplay:10.37,2013-02-02 12:02:00,
2013-02-02 07:07:00,19.0,14.7,30.14,SE,135,10.5,13.8,83,0.00,CLR,,0.00,WeatherDisplay:10.37,2013-02-02 12:07:00,
2013-02-02 07:12:00,19.2,14.9,30.13,SE,135,10.5,13.8,83,0.00,CLR,,0.00,WeatherDisplay:10.37,2013-02-02 12:12:00,
2013-02-02 07:17:00,35.1,34.0,30.21,SSE,158,2.4,15.0,96,0.00,CLR,,0.00,WeatherDisplay:10.37,2013-02-02 12:17:00,
2013-02-02 07:22:00,19.2,14.9,30.13,SE,135,7.7,13.8,83,0.00,CLR,,0.00,WeatherDisplay:10.37,2013-02-02 12:22:00,
2013-02-02 07:27:00,19.2,14.9,30.13,SE,135,8.8,15.0,83,0.00,CLR,,0.00,WeatherDisplay:10.37,2013-02-02 12:27:00,
2013-02-02 07:32:00,19.2,14.9,30.12,SE,135,10.5,15.0,83,0.00,CLR,,0.00,WeatherDisplay:10.37,2013-02-02 12:32:00,
2013-02-02 07:37:00,19.2,14.9,30.12,SE,135,9.7,12.7,83,0.00,CLR,,0.00,WeatherDisplay:10.37,2013-02-02 12:37:00,
2013-02-02 07:42:00,19.4,16.2,30.11,SE,135,9.7,18.4,87,0.00,CLR,,0.00,WeatherDisplay:10.37,2013-02-02 12:42:00,
2013-02-02 07:47:00,19.4,16.2,30.11,SE,135,10.5,18.4,87,0.00,CLR,,0.00,WeatherDisplay:10.37,2013-02-02 12:47:00,
2013-02-02 07:52:00,19.4,16.2,30.11,SE,135,13.7,15.0,87,0.00,CLR,,0.00,WeatherDisplay:10.37,2013-02-02 12:52:00,
2013-02-02 07:57:00,19.6,16.3,30.11,SE,135,9.7,15.0,87,0.00,CLR,,0.00,WeatherDisplay:10.37,2013-02-02 12:57:00,
2013-02-02 08:02:00,19.8,16.5,30.11,SE,135,10.5,16.1,87,0.00,CLR,,0.00,WeatherDisplay:10.37,2013-02-02 13:02:00,
2013-02-02 08:07:00,19.8,16.5,30.11,SE,135,11.7,15.0,87,0.00,CLR,,0.00,WeatherDisplay:10.37,2013-02-02 13:07:00,
2013-02-02 08:12:00,19.9,16.7,30.11,SE,135,10.5,16.1,87,0.00,CLR,,0.00,WeatherDisplay:10.37,2013-02-02 13:12:00,
2013-02-02 08:17:00,20.1,16.9,30.11,SE,135,8.8,13.8,87,0.00,CLR,,0.00,WeatherDisplay:10.37,2013-02-02 13:17:00,
2013-02-02 08:22:00,20.1,16.9,30.11,SE,135,10.5,12.5,87,0.00,CLR,,0.00,WeatherDisplay:10.37,2013-02-02 13:22:00,
2013-02-02 08:27:00,20.3,17.0,30.11,SE,135,7.7,10.4,87,0.00,CLR,,0.00,WeatherDisplay:10.37,2013-02-02 13:27:00,
2013-02-02 08:32:00,20.3,17.3,30.11,SE,135,8.8,13.8,88,0.00,CLR,,0.00,WeatherDisplay:10.37,2013-02-02 13:32:00,
2013-02-02 08:37:00,20.3,17.3,30.11,SE,135,8.8,15.0,88,0.00,CLR,,0.00,WeatherDisplay:10.37,2013-02-02 13:37:00,
2013-02-02 08:42:00,20.5,17.5,30.11,SE,135,9.7,11.5,88,0.00,CLR,,0.00,WeatherDisplay:10.37,2013-02-02 13:42:00,
2013-02-02 08:47:00,20.5,17.5,30.11,SE,135,8.8,12.5,88,0.00,CLR,,0.00,WeatherDisplay:10.37,2013-02-02 13:47:00,
2013-02-02 08:52:00,20.7,17.7,30.10,SE,135,8.8,12.7,88,0.00,CLR,,0.00,WeatherDisplay:10.37,2013-02-02 13:52:00,
2013-02-02 08:57:00,20.7,17.7,30.10,SE,135,11.7,12.7,88,0.00,CLR,,0.00,WeatherDisplay:10.37,2013-02-02 13:57:00,
2013-02-02 09:02:00,20.7,17.7,30.10,SE,135,11.7,13.8,88,0.00,CLR,,0.00,WeatherDisplay:10.37,2013-02-02 14:02:00,
2013-02-02 09:07:00,20.7,17.7,30.10,SE,135,10.5,16.1,88,0.00,CLR,,0.00,WeatherDisplay:10.37,2013-02-02 14:07:00,
2013-02-02 09:12:00,20.7,17.7,30.10,SE,135,9.7,15.0,88,0.00,CLR,,0.00,WeatherDisplay:10.37,2013-02-02 14:12:00,
2013-02-02 09:17:00,20.7,17.7,30.10,SE,135,10.5,15.0,88,0.00,CLR,,0.00,WeatherDisplay:10.37,2013-02-02 14:17:00,
2013-02-02 09:22:00,20.8,17.8,30.10,SE,135,10.5,15.0,88,0.00,CLR,,0.00,WeatherDisplay:10.37,2013-02-02 14:22:00,
2013-02-02 09:27:00,20.8,17.8,30.09,SE,135,8.8,15.0,88,0.00,CLR,,0.00,WeatherDisplay:10.37,2013-02-02 14:27:00,
2013-02-02 09:32:00,20.8,17.8,30.09,SE,135,7.7,11.5,88,0.00,CLR,,0.00,WeatherDisplay:10.37,2013-02-02 14:32:00,
2013-02-02 09:37:00,20.8,17.8,30.09,SE,135,6.8,8.1,88,0.00,CLR,,0.00,WeatherDisplay:10.37,2013-02-02 14:37:00,
2013-02-02 09:42:00,20.8,17.8,30.10,SE,135,6.8,8.1,88,0.00,CLR,,0.00,WeatherDisplay:10.37,2013-02-02 14:42:00,
2013-02-02 09:47:00,21.0,18.0,30.09,SE,135,6.8,11.5,88,0.00,CLR,,0.00,WeatherDisplay:10.37,2013-02-02 14:47:00,
2013-02-02 09:52:00,21.4,18.1,30.09,SE,135,6.8,9.2,87,0.00,CLR,,0.00,WeatherDisplay:10.37,2013-02-02 14:52:00,
2013-02-02 09:57:00,21.6,18.3,30.08,SE,135,7.7,10.4,87,0.00,CLR,,0.00,WeatherDisplay:10.37,2013-02-02 14:57:00,
2013-02-02 10:02:00,21.7,18.5,30.09,SE,135,7.7,12.7,87,0.00,CLR,,0.00,WeatherDisplay:10.37,2013-02-02 15:02:00,
2013-02-02 10:07:00,21.7,18.5,30.08,SE,135,7.7,9.2,87,0.00,CLR,,0.00,WeatherDisplay:10.37,2013-02-02 15:07:00,
2013-02-02 10:12:00,21.9,18.6,30.08,SE,135,8.8,8.8,87,0.00,CLR,,0.00,WeatherDisplay:10.37,2013-02-02 15:12:00,
2013-02-02 10:17:00,22.1,19.1,30.08,SE,135,5.7,10.4,88,0.00,CLR,,0.00,WeatherDisplay:10.37,2013-02-02 15:17:00,
2013-02-02 10:22:00,22.3,19.3,30.08,SE,135,7.7,11.5,88,0.00,CLR,,0.00,WeatherDisplay:10.37,2013-02-02 15:22:00,
2013-02-02 10:27:00,22.3,19.3,30.08,SE,135,6.8,10.4,88,0.00,CLR,,0.00,WeatherDisplay:10.37,2013-02-02 15:27:00,
2013-02-02 10:32:00,22.3,19.3,30.08,SE,135,6.8,9.2,88,0.00,CLR,,0.00,WeatherDisplay:10.37,2013-02-02 15:32:00,
2013-02-02 10:37:00,22.5,19.4,30.07,SE,135,2.8,4.6,88,0.00,CLR,,0.00,WeatherDisplay:10.37,2013-02-02 15:37:00,
2013-02-02 10:42:00,22.8,19.8,30.08,SE,135,6.8,9.2,88,0.00,CLR,,0.00,WeatherDisplay:10.37,2013-02-02 15:42:00,
2013-02-02 10:47:00,22.8,19.8,30.07,SE,135,7.7,9.2,88,0.00,CLR,,0.00,WeatherDisplay:10.37,2013-02-02 15:47:00,
2013-02-02 10:52:00,22.8,19.8,30.07,SE,135,5.7,9.2,88,0.00,CLR,,0.00,WeatherDisplay:10.37,2013-02-02 15:52:00,
2013-02-02 10:57:00,23.0,19.7,30.07,SE,135,4.0,8.1,87,0.00,CLR,,0.00,WeatherDisplay:10.37,2013-02-02 15:57:00,
2013-02-02 11:02:00,23.2,19.9,30.07,SE,135,4.8,8.1,87,0.00,CLR,,0.00,WeatherDisplay:10.37,2013-02-02 16:02:00,
2013-02-02 11:07:00,23.2,19.9,30.07,SE,135,7.7,10.5,87,0.00,CLR,,0.00,WeatherDisplay:10.37,2013-02-02 16:07:00,
2013-02-02 11:12:00,23.4,20.1,30.07,SE,135,4.0,6.9,87,0.00,CLR,,0.00,WeatherDisplay:10.37,2013-02-02 16:12:00,
2013-02-02 11:17:00,23.7,20.4,30.07,SE,135,0.9,5.8,87,0.00,CLR,,0.00,WeatherDisplay:10.37,2013-02-02 16:17:00,
2013-02-02 11:22:00,23.7,20.4,30.07,SE,135,0.9,4.6,87,0.00,CLR,,0.00,WeatherDisplay:10.37,2013-02-02 16:22:00,
2013-02-02 11:27:00,23.9,20.6,30.07,SE,135,2.8,8.1,87,0.00,CLR,,0.00,WeatherDisplay:10.37,2013-02-02 16:27:00,
2013-02-02 11:32:00,24.3,21.2,30.07,SE,135,0.9,2.3,88,0.00,CLR,,0.00,WeatherDisplay:10.37,2013-02-02 16:32:00,
2013-02-02 11:37:00,25.0,21.7,30.07,East,90,8.8,13.8,87,0.00,CLR,,0.00,WeatherDisplay:10.37,2013-02-02 16:37:00,
2013-02-02 11:42:00,25.0,21.7,30.07,West,270,2.4,5.8,87,0.00,CLR,,0.00,WeatherDisplay:10.37,2013-02-02 16:42:00,
2013-02-02 11:47:00,25.0,21.7,30.07,West,270,5.7,11.5,87,0.00,CLR,,0.00,WeatherDisplay:10.37,2013-02-02 16:47:00,
2013-02-02 11:52:00,25.0,21.7,30.07,West,270,2.4,6.9,87,0.00,CLR,,0.00,WeatherDisplay:10.37,2013-02-02 16:52:00,
2013-02-02 11:57:00,25.0,21.7,30.06,West,270,1.7,9.2,87,0.00,CLR,,0.00,WeatherDisplay:10.37,2013-02-02 16:57:00,
2013-02-02 12:02:00,25.0,21.7,30.06,West,270,3.3,8.1,87,0.00,CLR,,0.00,WeatherDisplay:10.37,2013-02-02 17:02:00,
2013-02-02 12:07:00,25.0,21.7,30.06,West,270,3.3,8.1,87,0.00,CLR,,0.00,WeatherDisplay:10.37,2013-02-02 17:07:00,
2013-02-02 12:12:00,25.0,21.7,30.06,West,270,2.4,6.9,87,0.00,CLR,,0.00,WeatherDisplay:10.37,2013-02-02 17:12:00,
2013-02-02 12:17:00,25.0,21.7,30.06,West,270,4.7,10.4,87,0.00,CLR,,0.00,WeatherDisplay:10.37,2013-02-02 17:17:00,
2013-02-02 12:22:00,25.0,21.7,30.06,SE,135,2.8,5.8,87,0.00,CLR,,0.00,WeatherDisplay:10.37,2013-02-02 17:22:00,
2013-02-02 12:27:00,24.6,21.3,30.06,NW,315,2.4,4.6,87,0.00,CLR,,0.00,WeatherDisplay:10.37,2013-02-02 17:27:00,
2013-02-02 12:32:00,24.4,21.1,30.06,NW,315,4.0,8.1,87,0.00,CLR,,0.00,WeatherDisplay:10.37,2013-02-02 17:32:00,
2013-02-02 12:37:00,24.4,21.1,30.06,NW,315,0.7,2.3,87,0.00,CLR,,0.00,WeatherDisplay:10.37,2013-02-02 17:37:00,
2013-02-02 12:42:00,24.8,21.2,30.06,NE,45,0.9,3.5,86,0.00,CLR,,0.00,WeatherDisplay:10.37,2013-02-02 17:42:00,
2013-02-02 12:47:00,25.3,22.0,30.06,North,0,4.8,6.9,87,0.00,CLR,,0.00,WeatherDisplay:10.37,2013-02-02 17:47:00,
2013-02-02 12:52:00,25.2,21.8,30.06,East,90,2.8,4.8,87,0.00,CLR,,0.00,WeatherDisplay:10.37,2013-02-02 17:52:00,
2013-02-02 12:57:00,25.3,22.0,30.06,East,90,2.0,2.3,87,0.00,CLR,,0.00,WeatherDisplay:10.37,2013-02-02 17:57:00,
2013-02-02 13:02:00,25.5,22.2,30.06,East,90,2.0,2.3,87,0.00,CLR,,0.00,WeatherDisplay:10.37,2013-02-02 18:02:00,
2013-02-02 13:07:00,25.7,22.4,30.06,NE,45,2.0,2.3,87,0.00,CLR,,0.00,WeatherDisplay:10.37,2013-02-02 18:07:00,
2013-02-02 13:12:00,26.2,22.9,30.06,NE,45,4.0,5.8,87,0.00,CLR,,0.00,WeatherDisplay:10.37,2013-02-02 18:12:00,
2013-02-02 13:17:00,26.2,22.9,30.06,NE,45,0.9,2.3,87,0.00,CLR,,0.00,WeatherDisplay:10.37,2013-02-02 18:17:00,
2013-02-02 13:22:00,26.6,23.0,30.06,North,0,2.0,5.8,86,0.00,CLR,,0.00,WeatherDisplay:10.37,2013-02-02 18:22:00,
2013-02-02 13:27:00,26.8,23.2,30.06,NE,45,2.0,3.5,86,0.00,CLR,,0.00,WeatherDisplay:10.37,2013-02-02 18:27:00,
2013-02-02 13:32:00,27.0,23.3,30.06,NE,45,0.9,1.1,86,0.00,CLR,,0.00,WeatherDisplay:10.37,2013-02-02 18:32:00,
2013-02-02 13:37:00,26.6,23.0,30.05,NE,45,0.9,2.3,86,0.00,CLR,,0.00,WeatherDisplay:10.37,2013-02-02 18:37:00,
2013-02-02 13:42:00,26.6,23.0,30.06,NE,45,0.9,2.3,86,0.00,CLR,,0.00,WeatherDisplay:10.37,2013-02-02 18:42:00,
2013-02-02 13:47:00,26.4,23.1,30.06,East,90,0.9,2.3,87,0.00,CLR,,0.00,WeatherDisplay:10.37,2013-02-02 18:47:00,
2013-02-02 13:52:00,26.2,22.9,30.06,East,90,0.9,2.3,87,0.00,CLR,,0.00,WeatherDisplay:10.37,2013-02-02 18:52:00,
2013-02-02 13:57:00,25.7,22.1,30.06,NE,45,0.0,2.3,86,0.00,CLR,,0.00,WeatherDisplay:10.37,2013-02-02 18:57:00,
2013-02-02 14:02:00,25.5,21.9,30.05,NE,45,2.0,2.3,86,0.00,CLR,,0.00,WeatherDisplay:10.37,2013-02-02 19:02:00,
2013-02-02 14:07:00,25.3,21.7,30.05,NE,45,0.0,2.3,86,0.00,CLR,,0.00,WeatherDisplay:10.37,2013-02-02 19:07:00,
2013-02-02 14:12:00,25.2,21.6,30.05,NE,45,0.0,2.3,86,0.00,CLR,,0.00,WeatherDisplay:10.37,2013-02-02 19:12:00,
2013-02-02 14:17:00,24.8,21.2,30.05,NE,45,0.9,2.3,86,0.00,CLR,,0.00,WeatherDisplay:10.37,2013-02-02 19:17:00,
2013-02-02 14:22:00,24.6,21.3,30.05,NE,45,0.0,2.3,87,0.00,CLR,,0.00,WeatherDisplay:10.37,2013-02-02 19:22:00,
2013-02-02 14:27:00,24.6,21.3,30.05,NE,45,0.0,3.5,87,0.00,CLR,,0.00,WeatherDisplay:10.37,2013-02-02 19:27:00,
2013-02-02 14:32:00,24.4,21.1,30.05,NE,45,0.0,2.3,87,0.00,CLR,,0.00,WeatherDisplay:10.37,2013-02-02 19:32:00,
2013-02-02 14:37:00,23.9,20.6,30.05,NE,45,0.9,2.3,87,0.00,CLR,,0.00,WeatherDisplay:10.37,2013-02-02 19:37:00,
2013-02-02 14:42:00,23.9,20.6,30.05,East,90,0.0,0.0,87,0.00,CLR,,0.00,WeatherDisplay:10.37,2013-02-02 19:42:00,
2013-02-02 14:47:00,24.3,20.9,30.05,NE,45,0.0,1.1,87,0.00,CLR,,0.00,WeatherDisplay:10.37,2013-02-02 19:47:00,
2013-02-02 14:52:00,24.4,21.1,30.05,NE,45,0.0,1.1,87,0.00,CLR,,0.00,WeatherDisplay:10.37,2013-02-02 19:52:00,
2013-02-02 14:57:00,24.4,21.1,30.05,NE,45,0.0,1.1,87,0.00,CLR,,0.00,WeatherDisplay:10.37,2013-02-02 19:57:00,
2013-02-02 15:02:00,24.4,21.1,30.04,NE,45,0.0,0.0,87,0.00,CLR,,0.00,WeatherDisplay:10.37,2013-02-02 20:02:00,
2013-02-02 15:07:00,24.3,20.9,30.04,NE,45,0.0,1.1,87,0.00,CLR,,0.00,WeatherDisplay:10.37,2013-02-02 20:07:00,
2013-02-02 15:12:00,23.9,20.6,30.05,NE,45,0.0,2.0,87,0.00,CLR,,0.00,WeatherDisplay:10.37,2013-02-02 20:12:00,
2013-02-02 15:17:00,23.7,20.4,30.05,NE,45,0.0,0.0,87,0.00,CLR,,0.00,WeatherDisplay:10.37,2013-02-02 20:17:00,
2013-02-02 15:22:00,23.9,20.6,30.05,NE,45,0.0,1.1,87,0.00,CLR,,0.00,WeatherDisplay:10.37,2013-02-02 20:22:00,
2013-02-02 15:27:00,23.9,20.6,30.05,NE,45,0.0,2.3,87,0.00,CLR,,0.00,WeatherDisplay:10.37,2013-02-02 20:27:00,
2013-02-02 15:32:00,23.7,20.4,30.05,NE,45,0.0,0.0,87,0.00,CLR,,0.00,WeatherDisplay:10.37,2013-02-02 20:32:00,
2013-02-02 15:37:00,23.9,20.6,30.06,NE,45,0.0,1.1,87,0.00,CLR,,0.00,WeatherDisplay:10.37,2013-02-02 20:37:00,
2013-02-02 15:42:00,23.7,20.4,30.06,NE,45,0.0,1.1,87,0.00,CLR,,0.00,WeatherDisplay:10.37,2013-02-02 20:42:00,
2013-02-02 15:47:00,23.2,19.6,30.06,NE,45,0.0,2.3,86,0.00,CLR,,0.00,WeatherDisplay:10.37,2013-02-02 20:47:00,
2013-02-02 15:52:00,23.0,19.4,30.06,NE,45,2.0,2.3,86,0.00,CLR,,0.00,WeatherDisplay:10.37,2013-02-02 20:52:00,
2013-02-02 15:57:00,22.6,19.4,30.06,East,90,0.9,2.3,87,0.00,CLR,,0.00,WeatherDisplay:10.37,2013-02-02 20:57:00,
2013-02-02 16:02:00,22.1,18.8,30.06,NE,45,2.0,3.5,87,0.00,CLR,,0.00,WeatherDisplay:10.37,2013-02-02 21:02:00,
2013-02-02 16:08:00,21.7,18.2,30.07,East,90,2.0,3.5,86,0.00,CLR,,0.00,WeatherDisplay:10.37,2013-02-02 21:08:00,
2013-02-02 16:13:00,21.2,17.7,30.07,NW,315,0.0,1.1,86,0.00,CLR,,0.00,WeatherDisplay:10.37,2013-02-02 21:13:00,
2013-02-02 16:18:00,21.4,17.8,30.07,NW,315,0.0,1.1,86,0.00,CLR,,0.00,WeatherDisplay:10.37,2013-02-02 21:18:00,
2013-02-02 16:23:00,21.4,17.8,30.08,NW,315,0.7,1.1,86,0.00,CLR,,0.00,WeatherDisplay:10.37,2013-02-02 21:23:00,
2013-02-02 16:28:00,21.4,17.8,30.08,NW,315,1.7,4.6,86,0.00,CLR,,0.00,WeatherDisplay:10.37,2013-02-02 21:28:00,
2013-02-02 16:33:00,21.2,17.7,30.08,NW,315,0.7,1.1,86,0.00,CLR,,0.00,WeatherDisplay:10.37,2013-02-02 21:33:00,
2013-02-02 16:38:00,21.0,17.8,30.08,NW,315,0.7,1.1,87,0.00,CLR,,0.00,WeatherDisplay:10.37,2013-02-02 21:38:00,
2013-02-02 16:43:00,21.0,17.8,30.08,NW,315,0.0,2.3,87,0.00,CLR,,0.00,WeatherDisplay:10.37,2013-02-02 21:43:00,
2013-02-02 16:48:00,20.7,17.4,30.08,NW,315,0.7,4.6,87,0.00,CLR,,0.00,WeatherDisplay:10.37,2013-02-02 21:48:00,
2013-02-02 16:53:00,20.3,17.0,30.08,NW,315,2.4,2.4,87,0.00,CLR,,0.00,WeatherDisplay:10.37,2013-02-02 21:53:00,
2013-02-02 16:58:00,19.6,16.3,30.08,NW,315,2.4,4.0,87,0.00,CLR,,0.00,WeatherDisplay:10.37,2013-02-02 21:58:00,
2013-02-02 17:03:00,19.0,14.4,30.08,NW,315,0.7,2.3,82,0.00,CLR,,0.00,WeatherDisplay:10.37,2013-02-02 22:03:00,
2013-02-02 17:08:00,18.7,14.1,30.09,NW,315,1.7,2.3,82,0.00,CLR,,0.00,WeatherDisplay:10.37,2013-02-02 22:08:00,
2013-02-02 17:13:00,18.5,13.9,30.09,NW,315,0.7,1.1,82,0.00,CLR,,0.00,WeatherDisplay:10.37,2013-02-02 22:13:00,
2013-02-02 17:18:00,18.3,13.7,30.09,NW,315,1.7,1.7,82,0.00,CLR,,0.00,WeatherDisplay:10.37,2013-02-02 22:18:00,
2013-02-02 17:23:00,18.1,13.6,30.09,NW,315,0.7,3.3,82,0.00,CLR,,0.00,WeatherDisplay:10.37,2013-02-02 22:23:00,
2013-02-02 17:28:00,17.8,13.2,30.09,NW,315,0.7,2.3,82,0.00,CLR,,0.00,WeatherDisplay:10.37,2013-02-02 22:28:00,
2013-02-02 17:33:00,17.6,13.0,30.09,NW,315,0.7,1.1,82,0.00,CLR,,0.00,WeatherDisplay:10.37,2013-02-02 22:33:00,
2013-02-02 17:38:00,17.6,13.0,30.09,NW,315,0.0,2.3,82,0.00,CLR,,0.00,WeatherDisplay:10.37,2013-02-02 22:38:00,
2013-02-02 17:43:00,17.6,13.0,30.09,NW,315,0.0,1.1,82,0.00,CLR,,0.00,WeatherDisplay:10.37,2013-02-02 22:43:00,
2013-02-02 17:48:00,17.6,13.0,30.09,NW,315,0.0,1.1,82,0.00,CLR,,0.00,WeatherDisplay:10.37,2013-02-02 22:48:00,
2013-02-02 17:53:00,17.8,13.2,30.09,NW,315,0.0,1.1,82,0.00,CLR,,0.00,WeatherDisplay:10.37,2013-02-02 22:53:00,
2013-02-02 17:58:00,17.6,13.0,30.08,NW,315,1.7,1.7,82,0.00,CLR,,0.00,WeatherDisplay:10.37,2013-02-02 22:58:00,
2013-02-02 18:03:00,17.4,12.9,30.08,NW,315,0.7,2.3,82,0.00,CLR,,0.00,WeatherDisplay:10.37,2013-02-02 23:03:00,
2013-02-02 18:08:00,17.2,12.7,30.07,NW,315,1.7,1.7,82,0.00,CLR,,0.00,WeatherDisplay:10.37,2013-02-02 23:08:00,
2013-02-02 18:13:00,17.1,12.5,30.07,NW,315,0.0,2.3,82,0.00,CLR,,0.00,WeatherDisplay:10.37,2013-02-02 23:13:00,
2013-02-02 18:18:00,16.9,12.3,30.07,NW,315,0.0,1.1,82,0.00,CLR,,0.00,WeatherDisplay:10.37,2013-02-02 23:18:00,
2013-02-02 18:23:00,16.7,12.2,30.06,NW,315,0.0,1.1,82,0.00,CLR,,0.00,WeatherDisplay:10.37,2013-02-02 23:23:00,
2013-02-02 18:28:00,16.7,12.2,30.05,NW,315,0.0,1.1,82,0.00,CLR,,0.00,WeatherDisplay:10.37,2013-02-02 23:28:00,
2013-02-02 18:33:00,16.7,12.2,30.05,NW,315,0.7,1.1,82,0.00,CLR,,0.00,WeatherDisplay:10.37,2013-02-02 23:33:00,
2013-02-02 18:38:00,16.5,12.0,30.06,NW,315,0.0,1.1,82,0.00,CLR,,0.00,WeatherDisplay:10.37,2013-02-02 23:38:00,
2013-02-02 18:43:00,16.3,11.8,30.05,NW,315,0.0,1.1,82,0.00,CLR,,0.00,WeatherDisplay:10.37,2013-02-02 23:43:00,
2013-02-02 18:48:00,16.3,11.8,30.05,NW,315,0.0,1.1,82,0.00,CLR,,0.00,WeatherDisplay:10.37,2013-02-02 23:48:00,
2013-02-02 18:53:00,16.3,11.8,30.05,NW,315,0.0,1.1,82,0.00,CLR,,0.00,WeatherDisplay:10.37,2013-02-02 23:53:00,
2013-02-02 18:58:00,16.2,11.6,30.05,NW,315,0.7,1.1,82,0.00,CLR,,0.00,WeatherDisplay:10.37,2013-02-02 23:58:00,
2013-02-02 19:03:00,16.2,11.6,30.05,NW,315,0.7,1.1,82,0.00,CLR,,0.00,WeatherDisplay:10.37,2013-02-03 00:03:00,
2013-02-02 19:08:00,16.2,11.6,30.05,NW,315,0.0,1.1,82,0.00,CLR,,0.00,WeatherDisplay:10.37,2013-02-03 00:08:00,
2013-02-02 19:13:00,16.2,11.6,30.05,NW,315,0.7,1.1,82,0.00,CLR,,0.00,WeatherDisplay:10.37,2013-02-03 00:13:00,
2013-02-02 19:18:00,16.2,11.6,30.04,NW,315,0.0,1.1,82,0.00,CLR,,0.00,WeatherDisplay:10.37,2013-02-03 00:18:00,
2013-02-02 19:23:00,16.2,11.6,30.04,NW,315,0.0,1.1,82,0.00,CLR,,0.00,WeatherDisplay:10.37,2013-02-03 00:23:00,
2013-02-02 19:28:00,16.0,11.2,30.04,NW,315,0.0,1.1,81,0.00,CLR,,0.00,WeatherDisplay:10.37,2013-02-03 00:28:00,
2013-02-02 19:33:00,16.0,11.2,30.04,NW,315,0.0,1.1,81,0.00,CLR,,0.00,WeatherDisplay:10.37,2013-02-03 00:33:00,
2013-02-02 19:38:00,16.0,11.2,30.04,NW,315,0.0,1.1,81,0.00,CLR,,0.00,WeatherDisplay:10.37,2013-02-03 00:38:00,
2013-02-02 19:43:00,16.0,11.2,30.04,NW,315,0.7,1.1,81,0.00,CLR,,0.00,WeatherDisplay:10.37,2013-02-03 00:43:00,
2013-02-02 19:48:00,16.0,11.2,30.04,NW,315,0.0,1.1,81,0.00,CLR,,0.00,WeatherDisplay:10.37,2013-02-03 00:48:00,
2013-02-02 19:53:00,16.0,11.2,30.04,NW,315,0.0,1.1,81,0.00,CLR,,0.00,WeatherDisplay:10.37,2013-02-03 00:53:00,
2013-02-02 19:58:00,16.0,11.2,30.04,NW,315,0.0,1.1,81,0.00,CLR,,0.00,WeatherDisplay:10.37,2013-02-03 00:58:00,
2013-02-02 20:03:00,16.0,11.2,30.05,NW,315,0.0,1.1,81,0.00,CLR,,0.00,WeatherDisplay:10.37,2013-02-03 01:03:00,
2013-02-02 20:08:00,16.0,11.2,30.05,NW,315,0.0,1.1,81,0.00,CLR,,0.00,WeatherDisplay:10.37,2013-02-03 01:08:00,
2013-02-02 20:13:00,16.0,11.2,30.06,NW,315,0.7,1.1,81,0.00,CLR,,0.00,WeatherDisplay:10.37,2013-02-03 01:13:00,
2013-02-02 20:18:00,16.0,11.2,30.06,NW,315,0.0,1.1,81,0.00,CLR,,0.00,WeatherDisplay:10.37,2013-02-03 01:18:00,
2013-02-02 20:23:00,16.0,11.2,30.06,NW,315,0.0,1.1,81,0.00,CLR,,0.00,WeatherDisplay:10.37,2013-02-03 01:23:00,
2013-02-02 20:28:00,16.0,10.9,30.06,NW,315,0.0,1.1,80,0.00,CLR,,0.00,WeatherDisplay:10.37,2013-02-03 01:28:00,
2013-02-02 20:33:00,16.0,10.9,30.07,NW,315,0.0,0.0,80,0.00,CLR,,0.00,WeatherDisplay:10.37,2013-02-03 01:33:00,
2013-02-02 20:38:00,16.0,10.9,30.07,NW,315,0.0,1.1,80,0.00,CLR,,0.00,WeatherDisplay:10.37,2013-02-03 01:38:00,
2013-02-02 20:43:00,16.0,10.9,30.07,NW,315,0.7,1.1,80,0.00,CLR,,0.00,WeatherDisplay:10.37,2013-02-03 01:43:00,
2013-02-02 20:48:00,15.8,10.7,30.07,NW,315,0.0,1.1,80,0.00,CLR,,0.00,WeatherDisplay:10.37,2013-02-03 01:48:00,
2013-02-02 20:53:00,15.8,10.7,30.07,NW,315,0.0,1.1,80,0.00,CLR,,0.00,WeatherDisplay:10.37,2013-02-03 01:53:00,
2013-02-02 20:58:00,15.8,10.7,30.07,NW,315,0.0,1.1,80,0.00,CLR,,0.00,WeatherDisplay:10.37,2013-02-03 01:58:00,
2013-02-02 21:03:00,15.8,10.7,30.07,NW,315,0.0,1.1,80,0.00,CLR,,0.00,WeatherDisplay:10.37,2013-02-03 02:03:00,
2013-02-02 21:08:00,15.8,10.7,30.07,NW,315,0.0,1.1,80,0.00,CLR,,0.00,WeatherDisplay:10.37,2013-02-03 02:08:00,
2013-02-02 21:13:00,15.8,10.7,30.07,NW,315,0.0,1.1,80,0.00,CLR,,0.00,WeatherDisplay:10.37,2013-02-03 02:13:00,
2013-02-02 21:18:00,15.6,10.8,30.07,NW,315,0.0,2.3,81,0.00,CLR,,0.00,WeatherDisplay:10.37,2013-02-03 02:18:00,
2013-02-02 21:23:00,15.6,10.5,30.07,NW,315,0.7,1.1,80,0.00,CLR,,0.00,WeatherDisplay:10.37,2013-02-03 02:23:00,
2013-02-02 21:28:00,15.6,10.5,30.07,NW,315,0.0,1.1,80,0.00,CLR,,0.00,WeatherDisplay:10.37,2013-02-03 02:28:00,
2013-02-02 21:33:00,15.6,10.5,30.08,NW,315,0.0,0.0,80,0.00,CLR,,0.00,WeatherDisplay:10.37,2013-02-03 02:33:00,
2013-02-02 21:38:00,16.2,11.1,30.08,NW,315,1.7,2.3,80,0.00,CLR,,0.00,WeatherDisplay:10.37,2013-02-03 02:38:00,
2013-02-02 21:43:00,17.8,12.7,30.08,NW,315,0.7,1.7,80,0.00,CLR,,0.00,WeatherDisplay:10.37,2013-02-03 02:43:00,
2013-02-02 21:48:00,18.9,14.0,30.08,NW,315,0.0,1.1,81,0.00,CLR,,0.00,WeatherDisplay:10.37,2013-02-03 02:48:00,
2013-02-02 21:53:00,19.8,16.0,30.08,NW,315,0.0,0.0,85,0.00,CLR,,0.00,WeatherDisplay:10.37,2013-02-03 02:53:00,
2013-02-02 21:58:00,20.8,17.3,30.08,NW,315,0.0,1.1,86,0.00,CLR,,0.00,WeatherDisplay:10.37,2013-02-03 02:58:00,
2013-02-02 22:03:00,21.7,17.9,30.08,NW,315,0.0,1.1,85,0.00,CLR,,0.00,WeatherDisplay:10.37,2013-02-03 03:03:00,
2013-02-02 22:08:00,20.1,16.6,30.07,NW,315,0.7,2.3,86,0.00,CLR,,0.00,WeatherDisplay:10.37,2013-02-03 03:08:00,
2013-02-02 22:13:00,18.5,13.6,30.08,NW,315,0.0,1.1,81,0.00,CLR,,0.00,WeatherDisplay:10.37,2013-02-03 03:13:00,
2013-02-02 22:18:00,18.9,14.0,30.08,NW,315,0.7,3.5,81,0.00,CLR,,0.00,WeatherDisplay:10.37,2013-02-03 03:18:00,
2013-02-02 22:23:00,17.6,12.8,30.08,NW,315,1.7,3.5,81,0.00,CLR,,0.00,WeatherDisplay:10.37,2013-02-03 03:23:00,
2013-02-02 22:28:00,16.7,12.2,30.08,NW,315,0.0,3.5,82,0.00,CLR,,0.00,WeatherDisplay:10.37,2013-02-03 03:28:00,
2013-02-02 22:33:00,16.5,12.0,30.08,NW,315,1.7,2.3,82,0.00,CLR,,0.00,WeatherDisplay:10.37,2013-02-03 03:33:00,
2013-02-02 22:38:00,16.0,11.5,30.07,NW,315,1.7,3.5,82,0.00,CLR,,0.00,WeatherDisplay:10.37,2013-02-03 03:38:00,
2013-02-02 22:43:00,15.8,11.0,30.07,NW,315,2.4,3.5,81,0.00,CLR,,0.00,WeatherDisplay:10.37,2013-02-03 03:43:00,
2013-02-02 22:48:00,15.6,11.1,30.07,NW,315,0.0,1.1,82,0.00,CLR,,0.00,WeatherDisplay:10.37,2013-02-03 03:48:00,
2013-02-02 22:53:00,15.6,11.1,30.07,NW,315,1.7,2.3,82,0.00,CLR,,0.00,WeatherDisplay:10.37,2013-02-03 03:53:00,
2013-02-02 22:58:00,15.6,11.1,30.07,NW,315,0.7,1.1,82,0.00,CLR,,0.00,WeatherDisplay:10.37,2013-02-03 03:58:00,
2013-02-02 23:03:00,16.0,11.2,30.07,NW,315,0.0,1.1,81,0.00,CLR,,0.00,WeatherDisplay:10.37,2013-02-03 04:03:00,
2013-02-02 23:08:00,16.2,11.4,30.07,NW,315,0.0,1.1,81,0.00,CLR,,0.00,WeatherDisplay:10.37,2013-02-03 04:08:00,
2013-02-02 23:13:00,16.0,11.2,30.07,NW,315,2.4,4.0,81,0.00,CLR,,0.00,WeatherDisplay:10.37,2013-02-03 04:13:00,
2013-02-02 23:18:00,15.6,11.1,30.07,NW,315,0.7,3.5,82,0.00,CLR,,0.00,WeatherDisplay:10.37,2013-02-03 04:18:00,
2013-02-02 23:23:00,15.4,10.9,30.07,NW,315,1.7,3.5,82,0.00,CLR,,0.00,WeatherDisplay:10.37,2013-02-03 04:23:00,
2013-02-02 23:28:00,15.4,10.7,30.07,NW,315,1.7,4.6,81,0.00,CLR,,0.00,WeatherDisplay:10.37,2013-02-03 04:28:00,
2013-02-02 23:33:00,15.4,10.7,30.07,NW,315,0.7,2.3,81,0.00,CLR,,0.00,WeatherDisplay:10.37,2013-02-03 04:33:00,
2013-02-02 23:38:00,15.4,10.7,30.07,NW,315,0.7,3.5,81,0.00,CLR,,0.00,WeatherDisplay:10.37,2013-02-03 04:38:00,
2013-02-02 23:43:00,15.4,10.7,30.08,NW,315,0.7,2.3,81,0.00,CLR,,0.00,WeatherDisplay:10.37,2013-02-03 04:43:00,
2013-02-02 23:48:00,16.2,11.4,30.08,NW,315,0.0,1.1,81,0.00,CLR,,0.00,WeatherDisplay:10.37,2013-02-03 04:48:00,
2013-02-02 23:53:00,16.5,11.7,30.08,NW,315,0.7,3.5,81,0.00,CLR,,0.00,WeatherDisplay:10.37,2013-02-03 04:53:00,
2013-02-02 23:58:00,16.2,11.4,30.08,NW,315,0.7,2.3,81,0.00,CLR,,0.00,WeatherDisplay:10.37,2013-02-03 04:58:00,